Terminal Aerodrome Forecast
Issued by NWS

Home | Current Version | Previous Version | Text Only | Print | Product List | Glossary On
Versions: 1 2 3 4 5 6 7 8 9 10 11 12 13 14 15 16 17 18 19 20
000
FTUS43 KIND 221400 AAA
TAFHUF
TAF AMD
KHUF 221411Z 2214/2312 20004KT P6SM SKC
     FM221600 22007KT P6SM SCT050
     FM230300 24004KT P6SM SCT050 BKN150
     FM231000 30006KT P6SM BKN040=

USA.gov is the U.S. government's official web portal to all federal, state and local government web resources and services.